Location: Estes Par
(40.3770°N, 10.0000°W)
Time: 04:32:10
(UTC-06:00)

Tiangong 2 - Visible Passes

Search period start: 21 October 2017 00:00
Search period end: 31 October 2017 00:00
Orbit: 388 x 391 km, 42.8° (Epoch: 20 October)

Date Brightness Start Highest point End Pass type
(mag) Time Alt. Az. Time Alt. Az. Time Alt. Az.
29 Oct 3.0 13:18:04 10° SSW 13:19:41 20° S 13:19:41 20° S visible
30 Oct 3.3 12:21:10 10° S 12:22:54 14° SE 12:24:37 10° ESE visible
30 Oct 3.9 13:56:11 10° WSW 13:57:00 17° WSW 13:57:00 17° WSW visible
